Location: Bron Breck
(40.6655°N, 111.8083°W)
Time: 21:24:49
(UTC+00:00)

Envisat - Pass Details

Date: 11 March 2021
Orbit: 764 x 766 km, 98.1° (Epoch: 12 April)

Event Time Altitude Azimuth Distance (km) Brightness Sun altitude
Rises 11:44:30 0° 34° (NE) 3,238 7.0 -23.4°
Reaches altitude 10° 11:48:04 10° 60° (ENE) 2,305 6.5 -22.8°
Maximum altitude 11:50:34 14° 90° (E) 2,052 6.2 -22.3°
Drops below altitude 10° 11:53:05 10° 120° (ESE) 2,296 6.1 -21.8°
Sets 11:56:35 0° 146° (SE) 3,216 6.5 -21.2°
